Dublin, Ireland

1:04 AM IST on July 23, 2017 (GMT +0100)
Dublin International

Weather History for EIDW - September, 2012

Change the Weather History Date:

Saturday, September 1, 2012

  Actual Average Record
Temperature  
Mean Temperature 62 °F -  
Max Temperature 68 °F 62 °F 71 °F (1999)
Min Temperature 55 °F 49 °F 41 °F (2002)
Degree Days  
Heating Degree Days 4    
Growing Degree Days 12 (Base 50)    
Moisture  
Dew Point 53 °F    
Average Humidity 77    
Maximum Humidity 94    
Minimum Humidity 53    
Precipitation  
Precipitation 0.00 in 0.09 in - ()
Sea Level Pressure  
Sea Level Pressure 30.20 in    
Wind  
Wind Speed 16 mph ()    
Max Wind Speed 22 mph    
Max Gust Speed -    
Visibility 6.6 miles    
Events      
Averages and records for this station are not official NWS values.
T = Trace of Precipitation, MM = Missing Value Source: Averaged Metar Reports

Daily Weather History Graph

Daily Weather History Graph

Search for Another Location

Airport or City:

Trip Planner

Search our weather history database for the weather conditions in past years. The results will help you decide how hot, cold, wet, or windy it might be!

Date:

Astronomy

Sep. 01, 2012 Rise Set
Actual Time 6:34 AM IST 8:13 PM IST
Civil Twilight 5:58 AM IST 8:50 PM IST
Nautical Twilight 5:12 AM IST 9:35 PM IST
Astronomical Twilight 4:21 AM IST 10:25 PM IST
Moon 8:02 PM IST (9/1) 7:44 AM IST (9/1)
Length of Visible Light 14h 52m
Length of Day
13h 38m
Full, 99% of the Moon is Illuminated
Sep 1
Full
Sep 8
Last Quarter
Sep 16
New
Sep 22
First Quarter
Sep 30
Full

Hourly Weather History & Observations

Time (IST) Temp. Dew Point Humidity Pressure Visibility Wind Dir Wind Speed Gust Speed Precip Events Conditions
12:00 AM 57.2 °F 53.6 °F 88% 30.33 in 6.2 mi West 18.4 mph - N/A   Mostly Cloudy
12:30 AM 57.2 °F 53.6 °F 88% 30.30 in 6.2 mi West 17.3 mph - N/A   Mostly Cloudy
1:00 AM 57 °F 54 °F 85% 30.32 in 16 mi WSW 15.7 mph - -   Mostly Cloudy
1:00 AM 57.2 °F 53.6 °F 88% 30.30 in 6.2 mi WSW 16.1 mph - N/A   Mostly Cloudy
1:30 AM 57.2 °F 53.6 °F 88% 30.30 in 6.2 mi WSW 15.0 mph - N/A   Mostly Cloudy
2:00 AM 57.2 °F 53.6 °F 88% 30.30 in 6.2 mi WSW 13.8 mph - N/A   Scattered Clouds
2:30 AM 57.2 °F 53.6 °F 88% 30.30 in 6.2 mi WSW 15.0 mph - N/A   Mostly Cloudy
3:00 AM 57.2 °F 53.6 °F 88% 30.30 in 6.2 mi WSW 16.1 mph - N/A   Mostly Cloudy
3:30 AM 55.4 °F 53.6 °F 94% 30.27 in 6.2 mi WSW 15.0 mph - N/A   Mostly Cloudy
4:00 AM 55.4 °F 51.8 °F 88% 30.27 in 6.2 mi WSW 13.8 mph - N/A   Mostly Cloudy
4:30 AM 55.4 °F 51.8 °F 88% 30.27 in 6.2 mi WSW 15.0 mph - N/A   Mostly Cloudy
5:00 AM 55.4 °F 51.8 °F 88% 30.27 in 6.2 mi WSW 15.0 mph - N/A   Mostly Cloudy
5:30 AM 55.4 °F 51.8 °F 88% 30.27 in 6.2 mi WSW 15.0 mph - N/A   Mostly Cloudy
6:00 AM 55.4 °F 51.8 °F 88% 30.24 in 6.2 mi WSW 15.0 mph - N/A   Mostly Cloudy
6:30 AM 55.4 °F 51.8 °F 88% 30.24 in 6.2 mi WSW 16.1 mph - N/A   Mostly Cloudy
7:00 AM 55 °F 52 °F 85% 30.27 in 16 mi WSW 15.7 mph - -   Scattered Clouds
7:00 AM 55.4 °F 51.8 °F 88% 30.24 in 6.2 mi WSW 16.1 mph - N/A   Mostly Cloudy
7:30 AM 55.4 °F 51.8 °F 88% 30.24 in 6.2 mi WSW 16.1 mph - N/A   Mostly Cloudy
8:00 AM 55.4 °F 51.8 °F 88% 30.24 in 6.2 mi WSW 15.0 mph - N/A   Mostly Cloudy
8:30 AM 55.4 °F 51.8 °F 88% 30.24 in 6.2 mi WSW 16.1 mph - N/A   Mostly Cloudy
9:00 AM 59.0 °F 53.6 °F 82% 30.24 in 6.2 mi WSW 16.1 mph - N/A   Mostly Cloudy
9:30 AM 59.0 °F 51.8 °F 77% 30.24 in 6.2 mi WSW 16.1 mph - N/A   Mostly Cloudy
10:00 AM 59.0 °F 51.8 °F 77% 30.21 in 6.2 mi WSW 19.6 mph - N/A   Mostly Cloudy
10:30 AM 60.8 °F 51.8 °F 72% 30.21 in 6.2 mi WSW 18.4 mph - N/A   Mostly Cloudy
11:00 AM 60.8 °F 51.8 °F 72% 30.21 in 6.2 mi WSW 18.4 mph - N/A   Mostly Cloudy
11:30 AM 60.8 °F 51.8 °F 72% 30.18 in 6.2 mi SW 17.3 mph - N/A   Mostly Cloudy
12:00 PM 62.6 °F 53.6 °F 72% 30.18 in 6.2 mi WSW 18.4 mph - N/A   Mostly Cloudy
12:30 PM 62.6 °F 53.6 °F 72% 30.18 in 6.2 mi WSW 18.4 mph - N/A   Mostly Cloudy
1:00 PM 65 °F 52 °F 53% 30.18 in 25 mi WSW 17.9 mph - -   Partly Cloudy
1:00 PM 66.2 °F 53.6 °F 64% 30.18 in 6.2 mi WSW 18.4 mph - N/A   Mostly Cloudy
1:30 PM 64.4 °F 51.8 °F 64% 30.18 in 6.2 mi WSW 20.7 mph - N/A   Mostly Cloudy
2:00 PM 66.2 °F 53.6 °F 64% 30.15 in 6.2 mi WSW 19.6 mph - N/A   Mostly Cloudy
2:30 PM 66.2 °F 51.8 °F 60% 30.15 in 6.2 mi SW 19.6 mph - N/A   Mostly Cloudy
3:00 PM 68.0 °F 53.6 °F 60% 30.15 in 6.2 mi SW 20.7 mph - N/A   Mostly Cloudy
3:30 PM 68.0 °F 51.8 °F 56% 30.15 in 6.2 mi WSW 20.7 mph - N/A   Mostly Cloudy
4:00 PM 66.2 °F 51.8 °F 60% 30.12 in 6.2 mi WSW 19.6 mph - N/A   Mostly Cloudy
4:30 PM 66.2 °F 51.8 °F 60% 30.12 in 6.2 mi WSW 21.9 mph - N/A   Mostly Cloudy
5:00 PM 66.2 °F 51.8 °F 60% 30.12 in 6.2 mi WSW 21.9 mph - N/A   Mostly Cloudy
5:30 PM 66.2 °F 51.8 °F 60% 30.12 in 6.2 mi WSW 18.4 mph - N/A   Mostly Cloudy
6:00 PM 66.2 °F 53.6 °F 64% 30.12 in 6.2 mi West 17.3 mph - N/A   Mostly Cloudy
6:30 PM 64.4 °F 53.6 °F 68% 30.12 in 6.2 mi WSW 19.6 mph - N/A   Mostly Cloudy
7:00 PM 64 °F 54 °F 62% 30.12 in 25 mi WSW 17.9 mph - -   Partly Cloudy
7:00 PM 64.4 °F 53.6 °F 68% 30.09 in 6.2 mi WSW 18.4 mph - N/A   Mostly Cloudy
7:30 PM 62.6 °F 53.6 °F 72% 30.09 in 6.2 mi WSW 19.6 mph - N/A   Mostly Cloudy
8:00 PM 62.6 °F 55.4 °F 77% 30.09 in 6.2 mi WSW 16.1 mph - N/A   Mostly Cloudy
8:30 PM 62.6 °F 55.4 °F 77% 30.09 in 6.2 mi WSW 20.7 mph - N/A   Mostly Cloudy
9:00 PM 62.6 °F 55.4 °F 77% 30.09 in 6.2 mi WSW 17.3 mph - N/A   Mostly Cloudy
9:30 PM 62.6 °F 55.4 °F 77% 30.09 in 6.2 mi WSW 16.1 mph - N/A   Mostly Cloudy
10:00 PM 60.8 °F 55.4 °F 82% 30.12 in 6.2 mi WSW 20.7 mph - N/A   Mostly Cloudy
10:30 PM 60.8 °F 57.2 °F 88% 30.12 in 6.2 mi WSW 19.6 mph - N/A   Light Drizzle
11:00 PM 60.8 °F 57.2 °F 88% 30.12 in 6.2 mi WSW 20.7 mph - N/A   Mostly Cloudy
11:30 PM 60.8 °F 57.2 °F 88% 30.12 in 6.2 mi WSW 17.3 mph - N/A   Mostly Cloudy